Time,TemperatureF,DewpointF,PressureIn,WindDirection,WindDirectionDegrees,WindSpeedMPH,WindSpeedGustMPH,Humidity,HourlyPrecipIn,Conditions,Clouds,dailyrainin,SolarRadiationWatts/m^2,SoftwareType,DateUTC
2018-01-22 00:08:00,45.8,36.0,30.17,SE,139,0.0,0.0,68,0.00,,,0.00,0,weatherlink.com 1.10,2018-01-22 05:08:00,
2018-01-22 00:53:00,44.9,34.0,30.16,SE,128,0.0,3.0,66,0.00,,,0.00,0,weatherlink.com 1.10,2018-01-22 05:53:00,
2018-01-22 01:24:00,43.7,33.0,30.15,ESE,115,2.0,4.0,67,0.00,,,0.00,0,weatherlink.com 1.10,2018-01-22 06:24:00,
2018-01-22 01:39:00,43.4,34.0,30.15,SSE,159,2.0,4.0,69,0.00,,,0.00,0,weatherlink.com 1.10,2018-01-22 06:39:00,
2018-01-22 01:54:00,43.2,34.0,30.15,SE,146,2.0,3.0,71,0.00,,,0.00,0,weatherlink.com 1.10,2018-01-22 06:54:00,
2018-01-22 02:09:00,43.1,35.0,30.16,ESE,117,0.0,2.0,73,0.00,,,0.00,0,weatherlink.com 1.10,2018-01-22 07:09:00,
2018-01-22 02:24:00,42.8,35.0,30.16,ESE,117,0.0,0.0,74,0.00,,,0.00,0,weatherlink.com 1.10,2018-01-22 07:24:00,
2018-01-22 02:39:00,42.8,35.0,30.16,ESE,117,0.0,0.0,74,0.00,,,0.00,0,weatherlink.com 1.10,2018-01-22 07:39:00,
2018-01-22 03:09:00,42.0,35.0,30.16,ESE,117,0.0,0.0,77,0.00,,,0.00,0,weatherlink.com 1.10,2018-01-22 08:09:00,
2018-01-22 03:24:00,41.3,35.0,30.15,ESE,117,0.0,0.0,79,0.00,,,0.00,0,weatherlink.com 1.10,2018-01-22 08:24:00,
2018-01-22 03:39:00,41.2,36.0,30.16,ESE,117,0.0,0.0,81,0.00,,,0.00,0,weatherlink.com 1.10,2018-01-22 08:39:00,
2018-01-22 04:09:00,41.2,36.0,30.15,ESE,117,0.0,0.0,83,0.00,,,0.00,0,weatherlink.com 1.10,2018-01-22 09:09:00,
2018-01-22 04:24:00,41.3,37.0,30.15,ESE,117,0.0,0.0,84,0.00,,,0.00,0,weatherlink.com 1.10,2018-01-22 09:24:00,
2018-01-22 04:39:00,41.6,37.0,30.16,ESE,117,0.0,0.0,84,0.00,,,0.00,0,weatherlink.com 1.10,2018-01-22 09:39:00,
2018-01-22 04:54:00,41.7,37.0,30.16,ESE,117,0.0,0.0,84,0.00,,,0.00,0,weatherlink.com 1.10,2018-01-22 09:54:00,
2018-01-22 05:09:00,41.8,37.0,30.15,ESE,117,0.0,0.0,84,0.00,,,0.00,0,weatherlink.com 1.10,2018-01-22 10:09:00,
2018-01-22 05:24:00,41.7,37.0,30.15,ESE,117,0.0,2.0,84,0.00,,,0.00,0,weatherlink.com 1.10,2018-01-22 10:24:00,
2018-01-22 06:09:00,41.7,37.0,30.16,SSE,167,0.0,2.0,83,0.00,,,0.00,0,weatherlink.com 1.10,2018-01-22 11:09:00,
2018-01-22 07:09:00,41.8,36.0,30.17,SSE,167,0.0,0.0,81,0.00,,,0.00,0,weatherlink.com 1.10,2018-01-22 12:09:00,
2018-01-22 07:54:00,42.2,37.0,30.18,SSE,167,0.0,0.0,82,0.00,,,0.00,23,weatherlink.com 1.10,2018-01-22 12:54:00,
2018-01-22 08:09:00,42.7,37.0,30.18,SSE,167,0.0,0.0,81,0.00,,,0.00,33,weatherlink.com 1.10,2018-01-22 13:09:00,